CW5761 Weather Reports


Display with metric or nautical units.
time (UTC)temp
F
wind
direction
speed
MPH
gust
MPH
rain 1hr
in
rain 24hr
in
rain mn
in
humidity
%
barometer
mb
20260510142004 62 329 0.0 0.0 0.00 0.00 0.00 91 1013.3
20260510141008 61 329 0.0 0.0 0.00 0.00 0.00 95 1013.2
20260510140008 60 329 0.0 0.0 0.00 0.00 0.00 98 1013.2
20260510135004 58 329 0.0 0.0 0.00 0.00 0.00 99 1013.2
20260510134054 58 329 0.0 0.0 0.00 0.00 0.00 99 1013.3
20260510133003 57 329 0.0 0.0 0.00 0.00 0.00 99 1013.3
20260510132628 56 329 0.0 0.0 0.00 0.00 0.00 99 1013.3
20260510123003 54 329 0.0 0.0 0.00 0.00 0.00 99 1013.2
20260510121003 54 329 0.0 0.0 0.00 0.00 0.00 98 1012.7
20260510115004 53 329 0.0 0.0 0.00 0.00 0.00 98 1012.3
20260510110005 52 329 0.0 0.0 0.00 0.00 0.00 98 1012.3
20260510105248 52 329 0.0 0.0 0.00 0.00 0.00 98 1012.2
20260510103003 52 329 0.0 0.0 0.00 0.00 0.00 98 1011.9
20260510102004 52 329 0.0 0.0 0.00 0.00 0.00 98 1011.8
20260510101003 52 329 0.0 0.0 0.00 0.00 0.00 98 1011.9
20260510100005 52 329 0.0 0.0 0.00 0.00 0.00 98 1011.9
20260510095003 52 329 0.0 0.0 0.00 0.00 0.00 98 1011.8
20260510094704 52 329 0.0 0.0 0.00 0.00 0.00 98 1011.8
20260510093004 52 329 0.0 0.0 0.00 0.00 0.00 98 1011.5
20260510092003 52 329 0.0 0.0 0.00 0.00 0.00 98 1011.5
20260510091003 52 329 0.0 0.0 0.00 0.00 0.00 98 1011.7
20260510090454 52 329 0.0 0.0 0.00 0.00 0.00 98 1011.7
20260510083003 52 329 0.0 0.0 0.00 0.00 0.00 98 1011.7
20260510081005 52 342 3.0 0.0 0.00 0.00 0.00 97 1011.1
20260510080114 52 340 3.0 0.0 0.00 0.00 0.00 97 1011.1
20260510073003 52 340 0.0 0.0 0.00 0.00 0.00 98 1011.0
20260510072003 53 340 0.0 0.0 0.00 0.00 0.00 98 1011.0
20260510071003 53 340 0.0 0.0 0.00 0.00 0.00 98 1011.1
20260510065004 52 340 0.0 0.0 0.00 0.00 0.00 98 1011.0
20260510064003 52 340 0.0 0.0 0.00 0.00 0.00 98 1010.8
20260510063004 51 340 0.0 0.0 0.00 0.00 0.00 98 1010.8
20260510062008 51 340 0.0 0.0 0.00 0.00 0.00 97 1010.6
20260510061003 51 340 0.0 0.0 0.00 0.00 0.00 97 1010.7
20260510060004 51 340 0.0 0.0 0.00 0.00 0.00 97 1010.7
20260510055403 51 340 0.0 0.0 0.00 0.00 0.00 97 1011.0
20260510053003 51 340 0.0 0.0 0.00 0.00 0.00 97 1011.0
20260510052004 51 340 0.0 0.0 0.00 0.00 0.00 97 1011.1
20260510050003 50 340 0.0 0.0 0.00 0.00 0.00 97 1011.1
20260510045008 50 340 0.0 0.0 0.00 0.00 0.00 97 1011.2
20260510044238 50 340 0.0 0.0 0.00 0.00 0.00 97 1011.2
20260510043003 50 340 0.0 0.0 0.00 0.00 0.00 97 1011.2
20260510042003 50 340 0.0 0.0 0.00 0.00 0.00 96 1011.2
20260510041009 50 340 0.0 0.0 0.00 0.00 0.00 96 1011.3
20260510040144 50 340 0.0 0.0 0.00 0.00 0.00 96 1011.3
20260510033009 51 340 0.0 0.0 0.00 0.00 0.16 96 1011.1
20260510032005 51 340 0.0 0.0 0.00 0.00 0.16 96 1011.0
20260510031004 51 340 0.0 0.0 0.00 0.00 0.16 97 1011.0
20260510025459 50 340 0.0 0.0 0.00 0.00 0.16 96 1010.9
20260510022009 50 340 0.0 0.0 0.00 0.00 0.16 95 1010.7
20260510021004 50 340 0.0 0.0 0.00 0.00 0.16 95 1010.7
20260510020008 51 340 0.0 0.0 0.00 0.00 0.16 95 1010.7
20260510015004 51 340 0.0 0.0 0.00 0.00 0.16 95 1010.6
20260510014855 51 340 0.0 0.0 0.00 0.00 0.16 95 1010.6
20260510013004 52 340 0.0 0.0 0.00 0.00 0.16 95 1010.7
20260510012009 52 340 0.0 0.0 0.00 0.00 0.16 95 1010.6
20260510011004 52 340 0.0 0.0 0.00 0.00 0.16 94 1010.5
20260510010009 52 340 0.0 0.0 0.00 0.00 0.16 94 1010.5
20260510005004 53 340 0.0 0.0 0.00 0.00 0.16 94 1010.3
20260510004004 53 340 0.0 0.0 0.00 0.00 0.16 94 1010.1
20260510002010 54 340 0.0 0.0 0.00 0.00 0.16 94 1010.0
20260510000004 55 340 0.0 0.0 0.00 0.00 0.15 94 1010.0
20260509234654 55 340 0.0 0.0 0.00 0.00 0.15 94 1010.1
20260509233005 56 340 0.0 0.0 0.00 0.00 0.15 93 1010.1
20260509232004 56 340 0.0 0.0 0.00 0.00 0.15 93 1010.0
20260509231005 56 340 0.0 0.0 0.00 0.00 0.15 93 1010.0
20260509230109 57 340 0.0 0.0 0.00 0.00 0.15 93 1010.0
20260509223005 58 340 0.0 0.0 0.00 0.00 0.15 93 1010.1
20260509222004 58 340 0.0 0.0 0.00 0.00 0.15 93 1009.8
20260509221004 58 340 0.0 0.0 0.00 0.00 0.15 93 1010.0
20260509220005 58 340 0.0 0.0 0.00 0.00 0.15 93 1010.0
20260509214005 58 340 0.0 0.0 0.00 0.00 0.15 94 1010.1
20260509213005 58 340 0.0 0.0 0.00 0.00 0.15 93 1010.1
20260509210004 57 340 0.0 0.0 0.00 0.00 0.15 95 1010.1
20260509205005 57 340 0.0 0.0 0.00 0.00 0.15 95 1010.1
20260509204004 57 340 0.0 0.0 0.00 0.00 0.15 94 1010.1
20260509203005 57 340 0.0 0.0 0.00 0.00 0.15 94 1010.1
20260509202009 56 340 0.0 0.0 0.00 0.00 0.13 94 1010.1
20260509201005 56 340 0.0 0.0 0.00 0.00 0.13 93 1010.3
20260509195004 57 340 0.0 0.0 0.00 0.00 0.09 93 1010.6
20260509194259 57 340 0.0 0.0 0.00 0.00 0.09 93 1010.9
20260509192004 57 344 0.0 0.0 0.00 0.00 0.07 93 1011.1
20260509191009 58 344 0.0 0.0 0.00 0.00 0.07 93 1011.1
20260509190004 58 344 0.0 0.0 0.00 0.00 0.07 93 1011.1
20260509185009 57 344 0.0 0.0 0.00 0.00 0.06 92 1011.2
20260509184214 57 344 0.0 0.0 0.00 0.00 0.06 92 1011.4
20260509182004 58 355 0.0 0.0 0.00 0.00 0.05 92 1011.5
20260509181010 58 355 0.0 0.0 0.00 0.00 0.04 91 1011.4
20260509180005 58 355 0.0 0.0 0.00 0.00 0.03 90 1011.4
20260509175004 59 355 0.0 0.0 0.00 0.00 0.03 90 1011.2
20260509174005 59 355 0.0 0.0 0.00 0.00 0.03 89 1011.0
20260509172004 59 355 0.0 0.0 0.00 0.00 0.02 89 1011.2
20260509171005 59 355 0.0 0.0 0.00 0.00 0.02 88 1011.3
20260509170004 60 355 0.0 0.0 0.00 0.00 0.02 86 1011.3
20260509165004 60 355 0.0 0.0 0.00 0.00 0.01 85 1011.5
20260509164005 61 355 0.0 0.0 0.00 0.00 0.01 83 1011.5
20260509162004 62 355 0.0 0.0 0.00 0.00 0.00 77 1011.6
20260509161004 63 355 0.0 0.0 0.00 0.00 0.00 74 1011.6
20260509160005 64 343 5.0 0.0 0.00 0.00 0.00 74 1011.6
20260509155004 64 339 0.0 0.0 0.00 0.00 0.00 69 1011.8
20260509154130 64 339 0.0 0.0 0.00 0.00 0.00 67 1011.9
20260509153004 64 26 1.0 0.0 0.00 0.00 0.00 71 1011.9
20260509151004 63 98 0.0 0.0 0.00 0.00 0.00 74 1011.8
20260509150005 63 25 0.0 0.0 0.00 0.00 0.00 76 1011.8
20260509145119 62 26 0.0 0.0 0.00 0.00 0.00 77 1011.4
20260509143005 62 342 0.0 0.0 0.00 0.00 0.00 76 1011.6